Content
SEND FEEDBACK

Daily
Averages
Monthly
Summary
United States of America

RAPID CITY, SOUTH DAKOTA


Home > North America > United States > South Dakota
Elevation: 3162 feet     Latitude: 44 03N     Longitude: 103 04W

WEATHER
 
SELECT A DAY
Number of Records: 200,374;   Date Range: 1/1/95 - 8/12/14
 
SHARE

PRINT THIS DATA

[ ← Previous Day ]
WEATHER ALMANAC - APRIL 18, 2013
[ Next Day → ]
[ °C ]   °F
Weather ElementAverageHighLow
Temperature25.1 °F34 °F (4:52 pm)19 °F (10:52 pm)
Dewpoint19.1 °F23 °F (12:52 am)12.9 °F (10:52 pm)
Humidity79.2 %93 % (12:59 am)59 % (3:52 pm)
Barometer30.17 in30.25 in (12:52 am)30.09 in (11:52 pm)
Wind Speed18.5 mph27.6 mph (1:52 pm)
Wind Gust33.4 mph (1:52 pm)
Weather ElementAverage
Visibility8.1 mi
Wind DirectionNW (312.1 °)

Weather ElementTotal
Precipitation---
Heating Degree Days38.5 (Base 65)
Averaged from 33 records on April 18, 2013
WEATHER CONDITIONS BREAKOUT
WIND DIRECTION BREAKOUT
WEATHER BY HOUR - APRIL 18, 2013
[ °C ]   °F
Local TimeTemperatureDewpointHumidityBarometerVisibilityWind DirectionWind SpeedGust SpeedPrecipitationEventsConditions
12:52 AM25.0 °F23.0 °F92 %30.25 in3.0 miNNW (340°)20.7 mph0.00 inSnowLight Snow
12:59 AM24.8 °F23.0 °F93 %30.13 in2.5 miNorth (360°)24.2 mph28.8 mph0.00 inSnowLight Snow
1:13 AM24.8 °F21.2 °F86 %30.12 in3.0 miNorth (360°)19.6 mph0.00 inSnowLight Snow
1:52 AM24.1 °F21.0 °F88 %30.24 in6.0 miNorth (350°)20.7 mph0.00 inOvercast
2:06 AM23.0 °F19.4 °F86 %30.12 in8.0 miNorth (350°)17.3 mph0.00 inOvercast
2:15 AM23.0 °F19.4 °F86 %30.12 in10.0 miNorth (350°)19.6 mph0.00 inOvercast
2:47 AM21.2 °F17.6 °F86 %30.12 in8.0 miNorth (350°)18.4 mph0.00 inSnowLight Snow
2:52 AM21.9 °F18.0 °F85 %30.25 in6.0 miNorth (350°)20.7 mph0.00 inSnowLight Snow
3:52 AM21.9 °F18.0 °F85 %30.25 in8.0 miNorth (350°)17.3 mph0.00 inSnowLight Snow
4:06 AM21.2 °F19.4 °F93 %30.13 in3.0 miNorth (350°)16.1 mph0.00 inSnowLight Snow
4:52 AM21.9 °F19.0 °F89 %30.24 in9.0 miNorth (350°)17.3 mph0.00 inOvercast
5:01 AM21.2 °F19.4 °F93 %30.11 in5.0 miNorth (350°)18.4 mph0.00 inSnowLight Snow
5:09 AM21.2 °F19.4 °F93 %30.11 in5.0 miNorth (350°)18.4 mph0.00 inSnowLight Snow
5:29 AM21.2 °F19.4 °F93 %30.11 in5.0 miNorth (360°)17.3 mph0.00 inSnowLight Snow
5:52 AM21.9 °F19.0 °F89 %30.24 in9.0 miNorth (350°)18.4 mph0.00 inOvercast
6:52 AM21.9 °F17.1 °F82 %30.23 in10.0 miNNW (340°)19.6 mphOvercast
7:52 AM21.0 °F17.1 °F85 %30.22 in10.0 miNNW (340°)24.2 mph0.00 inMostly Cloudy
8:52 AM23.0 °F17.1 °F78 %30.19 in10.0 miNNW (330°)25.3 mph32.2 mphClear
9:52 AM24.1 °F18.0 °F77 %30.20 in10.0 miNNW (340°)25.3 mph32.2 mphClear
10:52 AM25.0 °F19.0 °F78 %30.20 in10.0 miNNW (340°)20.7 mph31.1 mphClear
11:52 AM26.1 °F18.0 °F71 %30.20 in7.0 miNNW (340°)26.5 mphClear
12:52 PM28.0 °F19.9 °F72 %30.19 in10.0 miNNW (340°)25.3 mphClear
1:52 PM30.0 °F19.9 °F66 %30.18 in10.0 miNNW (340°)27.6 mph33.4 mphClear
2:52 PM32.0 °F21.0 °F64 %30.18 in10.0 miNNW (340°)26.5 mph33.4 mphClear
3:52 PM33.1 °F19.9 °F59 %30.16 in10.0 miNNW (330°)26.5 mph32.2 mphClear
4:52 PM34.0 °F21.0 °F59 %30.16 in10.0 miNNW (340°)21.9 mphClear
5:52 PM34.0 °F21.0 °F59 %30.17 in10.0 miNNW (340°)19.6 mphClear
6:52 PM33.1 °F21.9 °F64 %30.17 in10.0 miNNW (330°)15.0 mphClear
7:52 PM28.0 °F19.9 °F72 %30.18 in10.0 miNW (320°)10.4 mphClear
8:52 PM27.0 °F19.0 °F72 %30.18 in10.0 miNW (320°)10.4 mphClear
9:52 PM26.1 °F16.0 °F66 %30.16 in10.0 miCalmClear
10:52 PM19.0 °F12.9 °F77 %30.14 in10.0 miCalmScattered Clouds
11:52 PM23.0 °F16.0 °F74 %30.09 in10.0 miCalmOvercast
Hourly data recorded from KRAP, located miles away from Rapid City, South Dakota







STORIES FROM OUR PARTNERS